SL-24 PLAT, 40049

Orbit data source: Space-Track

SL-24 PLAT, 40049 is space debris in SSO originally from a launch on Thu, 19 Jun 2014 UTC launched from the Orenburg, Russia (OREN). Debris objects in space refer to the collection of defunct objects orbiting the Earth. Examples of debris include non-operational satellites, rocket bodies, and fragments generated from explosions, collisions, or faulty payload assembly.

Loading next visibility...
Identifier
40049, 2014-033AR
Orbit
SSO
Country
Flag of CISCIS
Related business
Manufacturer
Yuzhnoe
Mission
Spacecraft
Bus & Motor
Unknown
Mass
Unknown
Launch date (UTC)
2014-06-19 (11 years ago)
Launch vehicle
Unknown
Launch site
Orenburg, Russia (OREN)
Object type
Payload
Rocket body
Debris
Shape & HBR
Unknown shape, 2.4 m
Radar Cross Section
Large (>1 m²)

Expand to show TLE details & history
Last TLE update: 7 hours ago

TLE from 7 hours ago
0 SL-24 PLAT
1 40049U 14033AR  25342.53896980  .00009070  00000-0  59908-3 0  9992
2 40049  98.0884 325.6754 0006954 158.9918 201.1595 15.07648174623460
Epoch: 2025-12-08T12:56Z
TLE epoch observation values (Epoch: 2025-12-08T12:56:06.990Z)
Latitude
-0.00008°
Longitude
54.10973°
Altitude
550.932 km
Speed
7.584 km/s
True Right ascension
21h 42m 42s
True Declination
0° 00' 00"
Sunlit
Object was in daylight at epoch
Visualization orbit readout
Latitude
Unknown
Longitude
Unknown
Altitude
Unknown
Speed
Unknown
Apparent Right ascension
Unknown
Apparent Declination
Unknown
Sunlit
N/A
Visualization observer readout
Local Sidereal Time
17:50:35
Azimuth
Unknown
Elevation
Unknown
Doppler factor
Unknown
Orbital elements
Apogee altitude
545.213 km
Perigee altitude
535.59 km
Semi-major axis
6,918.538 km
Eccentricity
0.0007
Inclination
98.0884°
RAAN
325.6754°
Arg. of periapsis
158.9918°
True anomaly
201.13076°
Mean anomaly
201.1595°
Eccentric anomaly
201.14513°
Mean motion
3.77157 °/min
Orbital period
95.45 mins
BSTAR
0.00059908
Loading maneuver chart data...
Computing Atmospheric mass density...
Loading historical data...
Loading historical data...
Loading historical data...
Loading historical data...
Loading historical data...
Loading historical data...
Loading historical data...

Documentation

Showing up to 5 results
|